Home   Weather   Vista   Past weeks

Flag for USA Past Weather in Vista, California, USA — Yesterday and Last 2 Weeks

Now
51 °F

Clear.


Feels Like: 51 °F
Forecast: 44 / 69 °F
Wind: 3 mph from North

Location: McClellan-Palomar Airport

Current Time: Dec 4, 2016 at 2:13:47 am

Latest Report: Dec 4, 2016 at 12:53 am


Visibility: 10 mi

Pressure: 30.05 "Hg

Humidity: 42%

Dew Point: 29 °F

Location of VistaLocation

Past Weather in Vista — Graph

°F

Vista Temperature Yesterday

Maximum temperature yesterday: 68 °F (at 11:53 am)
Minimum temperature yesterday: 48 °F (at 10:53 pm)
Average temperature yesterday: 56 °F

High & Low Weather Summary for the Past Weeks

 TemperatureHumidityPressure
High79 °F (Nov 24, 11:53 am)100% (Nov 20, 9:00 pm)30.15 "Hg (Nov 20, 9:00 pm)
Low46 °F (Nov 30, 5:53 am)11% (Nov 25, 12:53 pm)29.84 "Hg (Nov 28, 4:53 pm)
Average58 °F65%30.01 "Hg
* Reported Nov 19 12:53 am — Dec 4 12:53 am, Vista, Weather by CustomWeather, © 2016

Note: Actual official high and low records may vary slightly from our data, if they occured in-between our weather recording intervals... More about our weather records

Advertising

Vista Weather History for the Previous 24 Hours

Scroll right to see more
 ConditionsComfort  
Time TempWeatherWind HumidityBarometerVisibility
12:53 am
Sun, Dec 4
51 °FClear.3 mph42%30.05 "Hg10 mi
11:53 pm
Sat, Dec 3
49 °FClear.No wind48%30.05 "Hg10 mi
10:53 pm48 °FClear.5 mph52%30.05 "Hg10 mi
9:53 pm51 °FClear.5 mph46%30.04 "Hg10 mi
8:53 pm53 °FClear.3 mph41%30.04 "Hg10 mi
7:53 pm51 °FClear.No wind50%30.04 "Hg10 mi
6:53 pm55 °FClear.No wind51%30.04 "Hg10 mi
5:53 pm56 °FClear.No wind49%30.03 "Hg10 mi
4:53 pm59 °FClear.5 mph49%30.03 "Hg10 mi
3:53 pm62 °FSunny.5 mph35%30.02 "Hg10 mi
2:53 pm63 °FSunny.6 mph29%30.03 "Hg10 mi
1:53 pm64 °FSunny.8 mph26%30.03 "Hg10 mi
12:53 pm63 °FSunny.10 mph38%30.04 "Hg10 mi
11:53 am68 °FSunny.3 mph13%30.07 "Hg10 mi
10:53 am66 °FSunny.5 mph15%30.10 "Hg10 mi
9:53 am64 °FSunny.3 mph17%30.11 "Hg10 mi
8:53 am60 °FSunny.7 mph18%30.10 "Hg10 mi
7:53 am56 °FSunny.6 mph21%30.09 "Hg10 mi
6:53 am52 °FSunny.5 mph23%30.08 "Hg10 mi
5:53 am52 °FClear.No wind23%30.07 "Hg10 mi
4:53 am53 °FClear.9 mph22%30.04 "Hg10 mi
3:53 am52 °FClear.6 mph23%30.04 "Hg10 mi
2:53 am52 °FClear.5 mph24%30.04 "Hg10 mi
Weather by CustomWeather, © 2016

See weather overviewHow to use our weather pages